Wind_Speed
16 16 15 15 14 13 10 10 6 6 7 8 9 9 10 10 10 11 12 6 10 8 6 7 7 3 4 3 3 3 4 1 4 1 4 9 4 8 10 11 6 1 14 25 30
16 16 16 16 15 15 12 12 6 6 6 8 9 9 9 9 10 15 6 9 10 10 6 4 3 2 4 4 3 4 3 5 6 3 4 8 9 16 8 12 2 11 20 27 32
17 17 16 17 17 16 14 13 6 5 4 6 10 9 8 7 6 6 12 12 12 11 6 6 5 1 2 1 2 3 4 2 5 11 7 9 7 10 13 4 11 26 32 33 33
18 17 17 17 17 17 16 13 6 6 4 4 9 9 8 7 5 5 6 15 16 12 8 7 4 1 2 2 3 1 12 11 8 4 13 10 17 8 17 2 21 28 34 35 34
18 18 18 17 17 17 17 13 6 6 3 3 9 9 8 6 4 5 4 12 17 14 10 8 7 3 2 3 4 5 5 3 15 6 12 21 16 6 16 3 19 32 34 34 33
18 18 18 18 17 17 17 12 5 6 3 4 9 10 8 4 4 4 6 11 18 14 12 11 3 3 4 5 3 3 11 12 6 4 12 10 5 9 9 14 27 32 33 33 32
18 18 18 18 17 17 15 10 4 5 2 4 9 10 7 2 4 3 7 10 16 15 11 8 2 5 5 6 5 6 7 7 1 1 4 15 4 3 18 24 30 29 31 31 31
19 18 18 18 17 16 13 8 3 4 2 5 8 7 3 4 5 3 8 12 14 13 9 5 3 6 2 6 7 5 5 3 3 4 6 3 5 2 27 32 27 26 30 31 30
19 19 18 17 16 14 10 5 3 3 1 4 6 3 3 6 7 4 9 11 13 13 9 4 5 2 3 3 5 6 0 1 6 1 4 4 5 7 24 26 25 26 28 29 29
20 19 18 17 15 13 7 6 2 3 1 3 4 2 5 3 9 9 11 12 7 6 3 3 2 3 4 4 1 2 2 1 3 1 3 3 2 8 22 24 26 25 23 25 29
21 19 18 16 14 7 6 1 3 1 5 6 2 2 3 4 11 11 11 9 5 3 2 2 3 6 8 6 4 2 2 1 3 2 6 2 2 5 15 16 18 22 26 27 30
21 20 18 15 12 0 4 4 7 7 8 8 13 16 11 4 9 12 12 7 5 4 3 4 5 6 4 5 3 2 1 3 3 5 6 3 5 4 9 13 23 27 29 34 30
21 20 18 15 6 4 1 4 7 4 2 7 11 16 13 13 8 17 15 9 4 5 5 5 4 3 5 4 4 1 4 3 3 3 7 7 5 2 2 9 14 22 29 26 33
20 19 18 11 2 4 7 3 5 2 4 6 6 8 13 10 4 14 20 9 2 9 6 5 5 3 2 1 5 3 2 1 6 4 4 3 4 5 2 4 8 23 27 31 29
20 20 16 13 10 5 5 2 3 1 2 3 5 7 15 14 8 10 25 12 6 6 5 5 1 2 2 5 6 3 3 3 2 4 4 3 4 6 2 6 8 16 30 32 31
19 19 18 15 11 7 6 3 2 5 6 2 7 7 7 6 3 7 10 8 2 4 1 5 3 3 6 3 0 6 5 7 5 3 2 2 5 5 6 12 5 5 22 30 28
20 18 20 16 8 5 5 4 4 3 4 4 5 5 5 5 3 4 7 5 5 4 2 3 3 3 3 4 2 6 7 3 4 5 5 0 3 7 5 3 10 14 23 26 26
21 20 19 17 12 10 5 4 4 5 6 4 4 4 9 5 5 4 6 5 4 4 3 5 3 3 2 6 7 3 6 5 2 2 4 3 3 4 7 10 16 22 26 24 24
22 19 20 11 13 15 7 3 8 7 3 2 3 5 4 4 5 4 7 6 8 8 7 5 4 2 1 3 5 4 4 4 7 3 3 4 6 3 5 4 18 18 24 27 27
22 20 13 10 13 22 4 6 5 5 3 1 7 4 9 6 6 6 8 5 6 11 4 7 3 2 3 3 11 5 6 4 3 2 3 5 5 5 2 4 6 11 23 29 27
17 9 4 6 20 18 6 7 5 9 5 3 2 4 6 8 9 6 7 5 7 5 5 5 4 4 1 4 6 2 2 7 5 4 5 1 6 6 7 9 13 19 31 32 31
6 2 4 23 5 1 5 6 4 3 2 3 2 5 8 8 7 8 10 6 9 15 9 6 5 3 1 4 2 1 4 5 5 4 1 3 6 2 6 10 15 17 27 29 29
14 6 8 11 4 2 3 4 4 3 3 1 3 5 3 7 4 6 6 1 6 9 10 8 0 3 7 6 3 6 3 5 6 4 6 6 6 2 3 6 15 17 22 26 28
5 3 2 10 3 5 5 4 4 6 5 5 4 2 2 4 0 5 3 4 4 4 10 10 4 7 8 8 5 5 3 4 5 4 5 5 5 5 4 5 10 17 23 27 26
3 2 1 2 2 1 1 3 5 5 6 7 3 6 6 5 3 4 3 2 5 2 5 5 5 3 4 4 4 5 5 6 3 5 5 3 5 7 7 7 11 17 19 21 21
3 3 4 5 5 2 1 4 6 2 2 4 5 3 6 7 8 8 7 3 5 4 3 3 2 3 5 4 5 4 4 5 3 4 2 2 6 7 7 8 12 16 20 20 18
2 3 4 4 4 2 4 3 4 2 7 12 3 4 4 6 6 3 5 10 7 7 3 4 6 3 3 3 3 3 7 5 3 2 5 5 7 6 4 2 8 15 15 16 16
Wind_Direction
8 5 6 4 0 358 347 339 313 289 265 248 241 236 233 237 242 241 240 221 199 185 188 188 196 215 305 1 42 62 65 290 283 142 280 171 117 145 148 141 166 174 162 158 157
3 1 1 359 357 357 350 344 321 305 274 244 229 228 229 235 245 247 214 208 201 210 210 189 164 187 351 12 61 83 101 230 204 264 186 211 155 149 151 160 106 130 150 157 164
358 357 358 355 353 354 352 346 329 328 294 238 215 213 215 227 258 245 212 201 193 188 189 153 150 335 6 336 170 152 214 242 279 288 240 164 142 159 133 190 195 159 163 164 169
353 353 353 352 349 349 351 346 334 336 323 222 200 198 200 194 175 162 182 192 193 196 187 167 191 52 328 281 223 197 251 251 285 335 152 167 155 171 186 188 197 177 169 167 170
350 349 349 348 347 345 347 344 336 343 340 194 182 184 184 205 234 149 188 190 190 190 182 165 173 198 238 249 282 186 273 276 275 272 171 164 181 189 200 3 160 168 171 173 175
346 345 345 343 344 343 345 343 339 347 344 166 176 178 178 206 178 226 216 199 192 191 185 177 159 289 252 236 205 221 279 278 267 98 145 154 140 172 181 147 154 169 175 180 183
342 342 342 341 340 341 344 346 349 360 22 159 168 172 193 193 200 213 195 195 195 194 185 183 223 327 331 308 320 315 342 343 317 106 145 139 98 245 154 157 152 172 181 188 192
339 339 339 338 337 340 342 358 18 16 69 155 167 179 227 210 210 224 183 175 185 189 175 184 283 315 275 310 341 25 48 24 312 139 133 125 229 108 159 156 153 174 186 196 201
335 335 336 335 332 337 334 334 345 17 78 156 169 183 239 209 209 179 157 156 156 161 178 203 313 296 321 64 3 6 237 181 325 272 121 85 245 138 162 156 155 181 191 197 205
331 333 335 334 330 334 332 323 306 292 242 184 215 260 219 187 174 168 140 142 136 158 200 217 177 49 32 74 188 307 360 262 253 199 80 108 167 137 167 166 172 183 191 197 210
328 330 332 333 332 336 349 342 330 314 249 227 191 241 144 163 175 174 175 170 163 123 154 52 76 221 219 195 165 231 291 90 272 67 90 185 97 154 170 171 176 190 198 204 216
325 327 329 332 333 163 30 77 28 302 305 267 241 243 227 187 177 187 190 165 153 171 138 30 225 216 207 174 178 168 145 289 283 26 97 93 56 124 185 201 194 193 203 211 213
322 324 325 333 326 178 61 68 4 334 256 277 224 226 217 209 198 199 187 188 162 153 185 171 222 91 197 152 146 111 176 157 143 56 45 99 3 4 145 225 220 217 220 220 218
319 320 322 334 275 297 168 3 351 314 47 267 212 219 188 179 223 197 192 169 183 194 167 230 268 210 171 147 131 186 213 96 111 91 169 51 233 276 204 239 205 220 221 225 222
316 315 314 314 295 281 211 301 323 237 349 206 176 177 174 165 142 187 191 195 173 186 114 248 254 116 137 210 177 178 103 61 56 91 101 4 92 253 179 233 221 213 216 223 222
311 310 303 302 289 259 232 239 193 46 253 230 150 155 127 183 164 135 167 192 164 154 348 246 278 186 201 85 17 128 78 48 57 87 55 223 140 276 192 210 158 198 208 216 215
307 301 293 284 273 196 217 178 56 162 303 202 179 148 146 159 205 137 150 177 162 111 252 331 268 291 163 107 42 72 57 5 5 12 209 236 86 243 289 217 175 173 193 206 207
307 296 281 272 260 225 196 65 188 232 240 296 114 97 173 157 228 159 124 176 231 104 117 154 306 199 180 181 168 69 134 143 196 232 268 313 244 249 279 213 158 182 183 186 191
311 299 287 275 230 204 181 138 202 208 230 327 88 111 211 214 166 138 175 195 194 165 167 144 266 271 204 133 122 177 70 148 104 27 31 291 296 311 18 131 147 165 175 180 183
317 310 289 240 201 185 115 226 230 220 316 29 200 167 175 189 157 161 172 207 201 191 154 203 102 35 120 101 45 119 148 77 17 136 276 304 283 243 154 223 164 163 182 189 188
317 308 246 250 169 170 182 220 256 256 254 204 234 169 190 170 168 174 204 256 190 146 121 143 102 271 85 31 166 90 85 55 109 109 160 247 273 216 213 196 191 192 195 193 189
325 321 313 155 115 180 164 192 209 267 242 294 216 214 181 173 165 181 205 227 179 143 160 184 125 130 137 307 263 121 133 131 122 222 123 152 271 281 256 218 204 206 203 199 194
327 279 182 186 153 231 261 231 228 217 229 245 269 207 178 175 147 180 182 273 180 157 165 182 311 68 357 359 1 79 102 105 105 89 187 143 260 299 321 195 217 211 204 199 197
307 335 232 213 225 164 169 206 216 228 242 223 255 215 138 190 334 177 172 33 130 127 130 123 103 157 186 194 139 137 143 133 113 112 172 222 290 306 315 229 192 206 207 197 198
274 270 309 270 351 25 210 187 173 201 216 201 269 218 182 167 125 157 145 129 73 146 70 105 109 109 36 106 104 141 161 154 120 156 151 226 212 271 258 237 213 190 183 178 174
310 345 324 279 298 222 190 193 177 187 188 260 220 253 191 179 179 188 145 170 181 47 76 23 140 127 37 10 121 118 148 125 95 123 301 161 274 238 277 231 220 199 182 178 175
296 296 307 299 324 144 195 188 183 107 238 235 247 141 178 228 177 172 143 133 137 136 113 84 131 102 172 11 69 2 204 171 125 163 160 206 237 327 331 252 181 171 177 177 181
Height
1517 1514 1511 1508 1507 1504 1502 1500 1499 1498 1498 1498 1499 1500 1501 1502 1503 1504 1504 1506 1506 1505 1506 1507 1508 1509 1510 1510 1511 1511 1522 1529 1518 1514 1509 1504 1506 1512 1514 1518 1521 1522 1522 1525 1530
1517 1514 1511 1508 1506 1504 1501 1499 1498 1497 1496 1496 1497 1498 1499 1501 1502 1500 1504 1504 1505 1505 1506 1507 1508 1509 1509 1510 1511 1513 1525 1517 1509 1505 1505 1504 1503 1509 1515 1517 1521 1522 1525 1527 1531
1516 1514 1510 1508 1505 1503 1500 1498 1496 1495 1494 1494 1495 1497 1498 1500 1501 1498 1499 1502 1504 1506 1506 1508 1509 1510 1510 1510 1512 1514 1518 1507 1501 1501 1500 1506 1507 1509 1513 1520 1518 1518 1524 1527 1531
1516 1513 1510 1507 1504 1501 1499 1497 1495 1494 1493 1493 1493 1496 1498 1499 1504 1497 1499 1501 1504 1506 1507 1509 1510 1510 1512 1512 1511 1514 1507 1506 1502 1504 1503 1504 1506 1508 1509 1513 1514 1519 1524 1529 1533
1515 1512 1509 1506 1503 1500 1498 1495 1494 1493 1492 1492 1493 1495 1497 1499 1497 1498 1498 1500 1502 1505 1508 1510 1511 1513 1513 1512 1510 1511 1507 1504 1501 1502 1499 1503 1504 1507 1510 1512 1516 1522 1527 1532 1536
1515 1512 1508 1505 1502 1499 1497 1494 1493 1492 1491 1491 1492 1494 1496 1498 1496 1497 1497 1499 1502 1505 1507 1510 1512 1512 1511 1511 1510 1507 1505 1502 1497 1499 1499 1504 1508 1510 1514 1514 1518 1524 1530 1534 1537
1513 1510 1507 1504 1501 1498 1495 1493 1492 1492 1491 1491 1492 1494 1495 1495 1495 1495 1496 1498 1501 1504 1507 1509 1510 1511 1509 1508 1506 1505 1505 1498 1496 1496 1502 1504 1514 1511 1512 1517 1522 1528 1531 1534 1536
1512 1509 1506 1503 1500 1497 1495 1493 1492 1492 1491 1491 1492 1494 1493 1493 1494 1494 1495 1497 1500 1503 1506 1508 1508 1508 1508 1507 1505 1508 1510 1516 1499 1498 1503 1504 1521 1513 1514 1516 1523 1529 1531 1533 1537
1511 1508 1505 1501 1498 1496 1494 1493 1492 1492 1491 1492 1494 1494 1492 1492 1493 1494 1495 1497 1500 1503 1506 1507 1507 1508 1507 1512 1521 1519 1524 1519 1509 1499 1501 1506 1515 1515 1518 1520 1524 1527 1529 1534 1539
1509 1506 1503 1500 1497 1495 1493 1492 1492 1492 1492 1492 1493 1496 1492 1491 1492 1494 1496 1499 1501 1504 1506 1507 1507 1510 1513 1520 1536 1523 1522 1517 1515 1502 1502 1510 1513 1516 1519 1521 1523 1527 1531 1535 1537
1506 1504 1501 1499 1496 1494 1493 1492 1494 1493 1490 1488 1488 1488 1488 1491 1493 1495 1497 1499 1501 1504 1508 1506 1514 1520 1511 1511 1509 1510 1514 1518 1504 1501 1510 1514 1516 1520 1521 1524 1526 1528 1530 1533 1532
1504 1501 1499 1497 1495 1494 1494 1493 1494 1495 1489 1484 1485 1486 1487 1489 1492 1494 1497 1500 1501 1507 1506 1512 1519 1503 1502 1505 1508 1512 1516 1515 1507 1503 1509 1519 1523 1521 1522 1521 1521 1524 1527 1530 1534
1501 1499 1497 1496 1493 1494 1494 1494 1493 1492 1491 1481 1480 1482 1485 1488 1489 1491 1494 1497 1499 1505 1506 1514 1501 1498 1500 1504 1508 1509 1515 1511 1511 1509 1512 1519 1531 1525 1523 1523 1525 1525 1526 1531 1532
1499 1497 1495 1494 1496 1493 1493 1493 1493 1492 1503 1483 1477 1477 1481 1484 1487 1488 1491 1495 1497 1503 1505 1507 1496 1497 1497 1500 1505 1514 1501 1502 1509 1520 1541 1521 1558 1531 1523 1522 1521 1522 1524 1526 1530
1497 1494 1493 1493 1492 1492 1493 1492 1493 1493 1526 1474 1473 1473 1475 1480 1481 1484 1488 1492 1496 1498 1501 1503 1496 1496 1500 1499 1499 1505 1500 1505 1509 1524 1529 1531 1549 1532 1524 1524 1520 1517 1519 1524 1528
1493 1491 1489 1490 1489 1490 1490 1491 1493 1509 1519 1474 1468 1471 1476 1477 1480 1483 1487 1491 1491 1494 1496 1496 1492 1492 1493 1494 1495 1499 1506 1517 1527 1535 1553 1535 1543 1539 1528 1511 1516 1515 1517 1521 1526
1489 1487 1485 1486 1487 1487 1488 1490 1508 1519 1475 1474 1472 1470 1474 1479 1480 1480 1487 1492 1500 1511 1508 1497 1494 1489 1489 1497 1497 1503 1523 1555 1549 1561 1557 1535 1543 1527 1511 1508 1508 1510 1515 1519 1524
1483 1481 1479 1481 1483 1485 1487 1492 1510 1486 1481 1463 1467 1472 1479 1477 1479 1480 1488 1497 1492 1497 1515 1516 1518 1492 1486 1491 1503 1511 1518 1551 1555 1568 1556 1536 1538 1523 1507 1504 1507 1512 1514 1518 1522
1477 1475 1472 1475 1476 1481 1486 1503 1495 1482 1467 1466 1467 1477 1480 1475 1478 1480 1487 1492 1487 1490 1507 1515 1508 1488 1487 1488 1492 1510 1525 1521 1552 1561 1560 1551 1529 1511 1507 1507 1507 1513 1515 1517 1521
1472 1469 1467 1468 1470 1476 1484 1491 1479 1468 1464 1463 1474 1468 1482 1479 1481 1484 1489 1476 1481 1480 1483 1493 1509 1492 1489 1488 1493 1497 1510 1533 1546 1556 1558 1555 1544 1534 1515 1514 1511 1514 1515 1517 1521
1470 1467 1463 1463 1467 1473 1482 1481 1470 1464 1464 1465 1465 1470 1470 1475 1477 1485 1482 1473 1471 1478 1482 1490 1499 1501 1491 1499 1505 1510 1519 1532 1541 1552 1564 1568 1547 1513 1510 1507 1507 1507 1510 1514 1518
1469 1469 1462 1461 1467 1470 1475 1469 1464 1462 1461 1460 1460 1461 1465 1466 1475 1478 1478 1470 1465 1470 1486 1486 1504 1516 1504 1499 1498 1498 1509 1520 1543 1546 1559 1557 1543 1504 1504 1504 1505 1506 1508 1513 1517
1468 1464 1463 1463 1470 1471 1465 1462 1461 1461 1461 1460 1460 1456 1456 1462 1468 1468 1470 1463 1464 1468 1476 1482 1508 1529 1522 1511 1499 1505 1508 1519 1527 1537 1550 1554 1540 1503 1502 1502 1504 1507 1509 1513 1517
1471 1468 1461 1461 1460 1460 1461 1461 1462 1458 1458 1458 1457 1455 1456 1460 1459 1466 1464 1463 1464 1465 1467 1472 1503 1507 1520 1510 1505 1511 1508 1513 1518 1539 1544 1542 1525 1507 1502 1503 1501 1503 1506 1509 1512
1471 1468 1468 1463 1460 1458 1458 1457 1459 1459 1456 1455 1455 1456 1457 1463 1462 1465 1464 1465 1466 1468 1469 1474 1500 1502 1504 1498 1498 1503 1506 1508 1510 1519 1525 1522 1524 1509 1504 1502 1500 1500 1504 1508 1511
1471 1470 1467 1463 1461 1460 1459 1458 1456 1456 1456 1455 1456 1450 1454 1459 1456 1464 1461 1464 1465 1468 1472 1477 1503 1498 1509 1502 1500 1507 1505 1505 1506 1516 1515 1516 1519 1504 1501 1500 1501 1503 1505 1508 1512
1471 1470 1470 1462 1461 1459 1458 1456 1454 1455 1450 1449 1450 1451 1452 1450 1447 1449 1452 1454 1456 1465 1476 1483 1498 1508 1518 1509 1506 1519 1508 1506 1508 1508 1511 1520 1510 1505 1503 1503 1503 1504 1508 1512 1515